Regional Weather Roundup
Issued by NWS Wakefield, VA

Home | Current Version | Previous Version | Graphics & Text | Print | Product List | Glossary On
Versions: 1 2 3 4 5 6 7 8 9 10 11 12 13 14 15 16 17 18 19 20 21 22 23 24 25 26 27 28 29 30 31 32 33 34 35 36 37 38 39 40 41 42 43 44 45 46 47 48 49 50
000
ASUS41 KAKQ 010610
RWRAKQ

REGIONAL WEATHER ROUNDUP
NATIONAL WEATHER SERVICE WAKEFIELD VA
200 AM EDT MON SEP 01 2014

Note: "fair" indicates few or no clouds below 12,000 feet with no
significant weather and/or obstructions to visibility. * = Denotes
station may not report precipitation (e.g., rain,snow,etc.),
thunder or fog.

VAZ042-051-052>054-056-010700-
NORTHERN VIRGINIA

CITY           SKY/WX    TMP DP  RH WIND       PRES   REMARKS
WASH NATIONAL  CLOUDY    77  72  84 S8        30.03F
DULLES         MOCLDY    72  72 100 S3        30.03F
FORT BELVOIR   LGT RAIN  73  72  94 E3        30.03F
QUANTICO       CLOUDY    75  72  90 N3        30.03F
FREDERICKSBRG* CLOUDY    76  75  99 N6        30.03S
STAFFORD*      LGT RAIN  72  72 100 CALM      30.07F
WARRENTON      CLOUDY    74  74 100 CALM      30.03F
CULPEPER*      MOCLDY   N/A N/A N/A CALM      30.03F
MANASSAS*      MOCLDY    73  73 100 CALM      30.03F
LEESBURG*      CLOUDY    72  72 100 CALM      30.03F
WINCHESTER     MOCLDY    72  72 100 CALM      30.04F
$$

VAZ048-049-060>072-079>083-010700-
CENTRAL AND SOUTH CENTRAL VIRGINIA...AND NORTH CENTRAL NORTH CAROLINA

CITY           SKY/WX    TMP DP  RH WIND       PRES   REMARKS
RICHMOND       MOCLDY    79  72  79 SW6       30.04F
CHESTERFIELD*  FAIR      77  64  65 S6        30.07S
PETERSBURG*    FAIR      76  72  87 S3        30.06F
HANOVER        FAIR      76  72  87 CALM      30.05F
TAPPAHANNOCK*  MOCLDY    77  69  76 CALM      30.05S
CHARLOTTSVILLE CLOUDY    74  71  91 CALM      30.04F
ORANGE*        CLOUDY    72  70  94 CALM      30.05F
LOUISA*        MOCLDY    75  73  94 SW3       30.04S
FARMVILLE*     FAIR      73  72  94 CALM      30.03F FOG
SOUTH HILL*    FAIR      77  75  94 MISG      30.12F
ROANOKE RAPIDS FAIR      73  72  94 S5        30.08S
RALEIGH        MOCLDY    78  71  79 S7        30.09F
$$

VAZ088>098-010700-
SOUTHEAST VIRGINIA

CITY           SKY/WX    TMP DP  RH WIND       PRES   REMARKS
NORFOLK        FAIR      78  72  81 SW12      30.07F
VIRGINIA BEACH FAIR      78  73  84 SW12      30.07S
NORFOLK NAVAL  FAIR      80  73  79 S10G17    30.08S
WEST POINT*    FAIR      81  72  74 S3        30.06S
NEWPORT NEWS   FAIR      82  73  74 SW12      30.06F
LANGLEY AFB    FAIR      79  75  88 SW12      30.05F
FORT EUSTIS    FAIR      78  78 100 S6        30.04F
WILLIAMSBURG*  FAIR      81  73  78 CALM      30.06F
FRANKLIN*      FAIR      75  72  88 S7        30.07F
WAKEFIELD      FAIR      78  72  81 S5        30.06F
$$

VAZ020-022-025-037-045-010700-
WESTERN AND SOUTHWEST VIRGINIA

CITY           SKY/WX    TMP DP  RH WIND       PRES   REMARKS
STAUNTON*      CLOUDY    73  68  84 CALM      30.09F
HOT SPRINGS VA FAIR      64  63  94 W10       30.23S
LYNCHBURG      FAIR      70  70 100 CALM      30.08F
DANVILLE       FAIR      75  71  87 CALM      30.07F
MARTINSVILLE   FAIR      70  70 100 CALM      30.10F
ROANOKE        FAIR      75  70  84 CALM      30.10F
BLACKSBURG     FAIR      72  72 100 CALM      30.16F
DUBLIN*        MOCLDY    72  71  96 SW5       30.16S
MARION*        FAIR     N/A N/A N/A W3        30.20F
HILLSVILLE*    FAIR      69  67  96 SW6       30.18S
RICHLANDS*     FAIR      73  66  77 SW7       30.18R
WISE*          FAIR      70  63  78 SW9G17    30.18S
ABINGDON*      FAIR      71  71  99 CALM      30.16S FOG
$$

MDZ021>025-VAZ099-100-010700-
SOUTHERN MARYLAND AND THE DELMARVA PENINSULA

CITY           SKY/WX    TMP DP  RH WIND       PRES   REMARKS
PATUXENT RIVER FAIR      77  71  82 SW7       30.02F
BAY BRIDGE APT   N/A     73  73 100 CALM      30.02S
LEONARDTOWN    FAIR      73  70  88 CALM      30.05S
DOVER          MOCLDY    73  73 100 W2        30.01R
GEORGETOWN     FAIR      76  74  93 S10       30.03F
EASTON         MOCLDY    75  75 100 CALM      30.06F
CAMBRIDGE      FAIR      77  73  88 CALM      30.02F
SALISBURY      MOCLDY    78  73  84 CALM      30.04F
OCEAN CITY     FAIR      80  75  84 SW10G21   30.03F
WALLOPS ISLAND FAIR      79  75  87 SW10      30.05F
ACCOMACK*      NOT AVBL
$$

NCZ012>017-030>032-010700-
EASTERN NORTH CAROLINA

CITY           SKY/WX    TMP DP  RH WIND       PRES   REMARKS
ELIZABETH CITY FAIR      78  75  90 S9        30.09S
AHOSKIE*       FAIR      73  71  94 CALM      30.09S
EDENTON*       FAIR      78  75  92 S6        30.10S
CURRITUCK*     FAIR      78  73  86 S3        30.10S
KILL DEVIL HLS FAIR      78  75  90 SW6       30.09F
MANTEO         FAIR      78  75  90 S9        30.11S
CAPE HATTERAS  FAIR      80  76  87 SW12G20   30.11F
GOLDSBORO      FAIR      76  76  98 SW2       30.08F
WASHINGTON     FAIR      76  74  93 SW5       30.10F
GREENVILLE     FAIR      77  75  94 SW8       30.11S
NEW BERN       FAIR      77  74  90 CALM      30.11F
WILMINGTON     FAIR      76  74  93 CALM      30.10F
$$

VAZ048-010700-
ELSEWHERE

CITY           SKY/WX    TMP DP  RH WIND       PRES   REMARKS
HARRISBURG PA  MOCLDY    73  70  90 CALM      30.00F
BALTIMORE      CLOUDY    74  72  93 SW5       30.01F
ANNAPOLIS      FAIR      75  72  90 S3        30.01F
ANDREWS AFB    FAIR      73  72  99 SW3       30.03F
WILMINGTON DE  LGT RAIN  75  73  93 SE5       30.03S
PHILADELPHIA   LGT RAIN  75  72  90 S6        30.01F
WILDWOOD NJ*   CLOUDY    75  72  88 W6        30.03F
ATLANTIC CITY  LGT RAIN  72  71  97 NW12      30.04R
HENDERSON NC   FAIR      76  71  85 S8        30.08F
GREENSBORO     FAIR      75  70  84 S5        30.08F
ROCKY MOUNT    FAIR      77  73  87 S7        30.09F
FAYETTEVILLE   FAIR      77  74  90 S5        30.09F
CHARLOTTE      MOCLDY    74  69  85 S3        30.10S
$$

VAZ100-010700-
MARINE

STATION/POSITION TIME  TEMP    WIND        PRES    WAVE   SWELL
                       AIR SEA DIR/SP/G            HT/PER HT/PER
                 (UTC) (F)     (DEG/KT/KT) (MB)    (FT/S) (FT/S)
44066 TX TWR #4  0600   74 73  240/ 12/ 14 1017.3F   4/ 5   2/ 9
CAPE MAY NJ      0600   76 80  260/  7/  8 1016.2F
LEWES DE         0600   77 76  220/  5/  7 1016.4S
15NM E FENWICK I 0600   77 74              1016.4F   5/ 5
OCEAN-CITY-INLET 0600   79 76  230/ 14/ 20 1016.5F
WACHAPREAGUE VA  0600   79 82  220/  7/ 11 1017.7S
THOMAS POINT MD  0600   75 79  210/  7/  7 1017.5F
GOOSES REEF MD   0600   77     300/  4/  6 1017.4F
COVE POINT MD    0600   77     210/  5/  6 1016.6F
SOLOMONS ISLAND  0600      80                N/A
BISHOPS HEAD MD  0600   80 81  200/ 12/ 15 1016.3F
PINEY POINT MD   0600          200/  7/  8   N/A
POTOMAC MD       0600   80     240/  6/  6 1016.4F
CAMBRIDGE MD     0600   76 78   CALM  /  2 1016.5F
LEWISETTA VA     0600   78 79  230/  3/  3 1016.7F
RAPPAHANNOCK LGT 0600          200/ 19/ 20 1017.9S
STINGRAY PT      0600   81     220/ 12/ 16   N/A
YORK RVR RNG VA  0600   80     220/ 15/ 18 1017.1F
YORKTOWN VA      0600   80 80  220/ 11/ 14 1017.3F
JAMESTOWN VA     0600   77     230/ 10/ 14   N/A
DOMINION TERM VA 0600   79     210/ 13/ 17 1018.1S
KIPTOPEKE VA     0600      83  220/ 15/ 19   N/A
CHES BAY BRIDGE  0600   80 79  200/ 17/ 20 1017.4F
CAPE HENRY VA    0600   78     200/  9/ 14 1017.0F
CHESAPEAKE LGHT  0500   79     200/ 17/ 19 1019.0F
WILLOUBY STN VA  0600   79     220/ 11/ 13 1016.9F
S CRANEY ISL VA  0600          190/  9/ 12 1017.8F
CAPE HENRY BUOY  0600      78                N/A     3/ 9
1ST LANDING BUOY 0600   80     210/ 14/ 17 1017.7F
CAPE CHARLES BUO 0600      79                N/A     3/ 9   2/ 9
OFFSHORE WE BUOY 0600      76                N/A     3/ 9   2/ 9
64NM E OF VA BCH 0600   78 78  200/ 14/ 16 1018.3F   3/ 9   2/ 9
DUCK PIER NC     0600   79 75  200/  8/ 11 1018.4R
44056 DUCK FRF   0600                        N/A     2/ 9
OREGON INLET NC  0600   81 82  200/ 14/ 17 1019.3F
HATTERAS NC      0600   81 84  220/ 11/ 16 1020.2F
DIAMOND SHLS NC  0600   82     200/ 16/ 17 1019.8F   4/ 8   3/ 8
CAPE LOOKOUT NC  0600   81     200/ 10/ 11 1019.6F
$$


USA.gov is the U.S. government's official web portal to all federal, state and local government web resources and services.